Showing default

YAOGAN-39 04B, 58143

Orbit data source: Space-Track

YAOGAN-39 04B, 58143 is a payload satellite owned by PLA GAD (CN) in LEO that was launched on Mon, 23 Oct 2023 UTC via a CHANG ZHENG 2D launch vehicle from the Xichang Space Center, China (XSC). Payload-class satellites include a variety of spacecraft equipped with specific instruments for various scientific and technological missions. These include communications satellites like Starlink; space stations such as the ISS; scientific satellites like the Hubble; Earth observation satellites from companies like Planet Labs, Umbra, and HawkEye 360; GPS; miniature CubeSats for education and research; and military/defense satellites.

Loading next visibility...
Identifier
58143, 2023-163C
Orbit
LEO
Last TLE update
10 hours ago
Origin
Manufacturer
SAST
Mission
Operational Defense Sigint
Bus & Motor
Unknown
Mass
~300 kg wet, ~300 kg dry
Launch date (UTC)
2023-10-23 (2 years ago)
Launch vehicle
CHANG ZHENG 2D
Launch site
Xichang Space Center, China (XSC)
Object type
Payload
Rocket body
Debris
Shape & HBR
Box + 2 Pan, 5 m
Radar Cross Section
11.063 m², Large (>1 m²)

Expand to show TLE details & history

TLE from 10 hours ago
0 YAOGAN-39 04B
1 58143U 23163C   25182.01465036  .00004431  00000-0  22289-3 0  9997
2 58143  34.9967  38.0035 0009203 280.8354  79.1323 15.16625345 93942
Epoch: 2025-07-01T00:21Z
TLE epoch observation values (Epoch: 2025-07-01T00:21:05.791Z)
Latitude
0.00001°
Longitude
113.4132°
Altitude
513.768 km
Speed
7.61 km/s
True Right ascension
02h 32m 00s
True Declination
0° 00' 00"
Sunlit
Object was in daylight at epoch
Visualization orbit readout
Latitude
28.57411°
Longitude
161.57072°
Altitude
519.746 km
Speed
7.606 km/s
Apparent Right ascension
07h 29m 55s
Apparent Declination
-4° 44' 15"
Sunlit
Object is in daylight
Visualization observer readout
Local Sidereal Time
21:43:01
Azimuth
49.241° ENE
Elevation
-43.792°
Doppler factor
1
Orbital elements
Apogee altitude
525.638 km
Perigee altitude
512.942 km
Semi-major axis
6,897.427 km
Eccentricity
0.00092
Inclination
34.9967°
RAAN
38.0035°
Arg. of periapsis
280.8354°
True anomaly
Unknown
Mean anomaly
79.1323°
Eccentric anomaly
Unknown
Mean motion
3.78889 °/min
Orbital period
95.01 mins
BSTAR
0.00022289
Loading maneuver chart data...
Loading SW <> Apogee altitude chart data...
Loading historical data...
Loading historical data...
Loading historical data...
Loading historical data...
Loading historical data...
Loading historical data...
Loading historical data...
Other satellites on launch #163 in the year 2023 (2023-10-23 UTC)

YAOGAN-39 04B Visibility forecast

Observer location: undefined°, undefined°

Span
Click to sort rows by Start time (UTC) header in descending order
Start Az.
Max El. time (UTC)
Max El. Az.
Max El.
End time (UTC)
End Az.
5 mins2025-07-01 17:57:37.685Z195.87° SSW2025-07-01 17:59:37.685Z162.888° S17.08°2025-07-01 18:02:37.685Z113.976° SE
5 mins2025-07-01 19:37:37.685Z225.011° WSW2025-07-01 19:39:37.685Z173.247° S30.649°2025-07-01 19:42:37.685Z109.484° ESE
5 mins2025-07-01 21:17:37.685Z239.815° WSW2025-07-01 21:19:37.685Z186.149° SSW30.894°2025-07-01 21:22:37.685Z124.082° SE
4 mins2025-07-01 22:57:37.685Z233.649° WSW2025-07-01 22:59:37.685Z196.758° SSW17.564°2025-07-01 23:01:37.685Z163.339° S
|